FW5230 Weather Reports


Display with metric or nautical units.
time (UTC)temp
F
wind
direction
speed
MPH
gust
MPH
rain 1hr
in
rain 24hr
in
rain mn
in
humidity
%
barometer
mb
20260508080002 37 293 0.0 0.0 0.00 0.00 0.00 82 1004.9
20260508074500 37 317 0.0 3.0 0.00 0.01 0.00 83 1004.6
20260508073112 38 242 1.0 3.0 0.00 0.01 0.00 79 1004.6
20260508071606 39 247 1.0 2.0 0.00 0.01 0.00 78 1004.6
20260508070101 39 304 1.0 5.0 0.00 0.01 0.00 77 1004.7
20260508064615 38 302 2.0 4.0 0.00 0.11 0.00 78 1004.7
20260508063109 37 261 1.0 5.0 0.00 0.11 0.00 81 1004.7
20260508061607 36 264 1.0 3.0 0.00 0.11 0.00 82 1004.9
20260508060104 36 256 1.0 3.0 0.00 0.11 0.00 82 1005.0
20260508054552 37 264 0.0 2.0 0.00 0.15 0.00 81 1005.1
20260508053055 37 249 0.0 4.0 0.00 0.15 0.00 81 1005.1
20260508051605 37 198 0.0 2.0 0.00 0.15 0.00 82 1005.3
20260508050046 39 131 0.0 0.0 0.00 0.15 0.00 75 1005.5
20260508044549 40 108 0.0 0.0 0.00 0.17 0.00 74 1005.6
20260508043044 38 244 0.0 0.0 0.00 0.17 0.00 78 1005.6
20260508041540 39 244 0.0 0.0 0.00 0.17 0.00 79 1005.7
20260508040048 40 244 0.0 0.0 0.00 0.17 0.00 75 1005.9
20260508034544 41 179 0.0 0.0 0.00 0.19 0.17 74 1005.8
20260508033031 43 111 0.0 1.0 0.00 0.19 0.17 65 1005.8
20260508031535 43 118 2.0 3.0 0.00 0.19 0.17 66 1005.7
20260508030028 43 283 0.0 5.0 0.00 0.19 0.17 65 1005.5
20260508024547 45 275 2.0 4.0 0.00 0.19 0.17 61 1005.6
20260508023025 46 321 0.0 2.0 0.00 0.19 0.17 57 1005.6
20260508021525 46 284 0.0 4.0 0.00 0.19 0.17 57 1005.6
20260508020024 46 255 2.0 6.0 0.00 0.19 0.17 56 1005.7
20260508014525 46 285 3.0 7.0 0.00 0.21 0.17 55 1005.8
20260508013023 47 296 1.0 5.0 0.00 0.21 0.17 56 1005.7
20260508011529 47 290 3.0 6.0 0.00 0.21 0.17 55 1005.7
20260508010022 48 277 1.0 5.0 0.00 0.21 0.17 55 1005.6
20260508004537 49 313 1.0 4.0 0.00 0.22 0.17 53 1005.7
20260508003021 49 317 1.0 6.0 0.00 0.22 0.17 52 1005.4
20260508001531 50 247 0.0 10.0 0.00 0.22 0.17 52 1005.4
20260508000019 51 274 1.0 6.0 0.00 0.22 0.17 51 1005.1
20260507234519 52 340 6.0 14.0 0.00 0.50 0.17 47 1004.9
20260507233018 53 311 8.0 16.0 0.00 0.50 0.17 46 1004.5
20260507231517 54 295 8.0 14.0 0.00 0.50 0.17 48 1004.1
20260507230015 55 304 4.0 12.0 0.00 0.50 0.17 54 1003.6
20260507224515 56 325 7.0 13.0 0.00 0.62 0.17 55 1003.3
20260507223015 57 307 5.0 15.0 0.00 0.62 0.17 55 1003.1
20260507221514 58 261 4.0 12.0 0.00 0.62 0.17 59 1002.9
20260507220014 57 338 7.0 13.0 0.00 0.62 0.17 61 1002.7
20260507214513 57 289 2.0 5.0 0.00 0.77 0.17 64 1002.7
20260507213016 58 67 1.0 3.0 0.00 0.77 0.17 66 1002.5
20260507211513 59 355 1.0 5.0 0.00 0.77 0.17 65 1002.3
20260507210011 59 342 1.0 4.0 0.00 0.77 0.17 68 1002.4
20260507204511 57 13 2.0 6.0 0.00 0.87 0.17 68 1002.3
20260507203016 58 12 1.0 5.0 0.00 0.87 0.17 65 1002.1
20260507201511 58 297 1.0 7.0 0.00 0.87 0.17 62 1002.0
20260507200010 59 355 4.0 10.0 0.00 0.87 0.17 60 1002.0
20260507194516 59 292 4.0 9.0 0.00 0.88 0.17 59 1001.9
20260507193009 59 198 2.0 5.0 0.00 0.88 0.17 65 1002.0
20260507191511 57 237 1.0 6.0 0.00 0.88 0.17 63 1002.1
20260507190011 56 214 2.0 6.0 0.00 0.88 0.17 71 1002.5
20260507184504 57 296 3.0 7.0 0.00 0.88 0.17 66 1002.6
20260507183010 58 222 3.0 8.0 0.00 0.88 0.17 59 1002.7
20260507181505 59 324 3.0 7.0 0.00 0.88 0.17 57 1002.6
20260507180006 59 262 3.0 7.0 0.00 0.88 0.17 59 1002.6
20260507174503 59 215 2.0 6.0 0.00 0.88 0.17 57 1002.7
20260507173001 59 191 4.0 12.0 0.00 0.88 0.17 54 1002.7
20260507171501 60 285 3.0 8.0 0.00 0.88 0.17 53 1002.6
20260507164558 59 254 2.0 11.0 0.00 0.88 0.17 56 1003.0
20260507163054 59 338 4.0 10.0 0.00 0.88 0.17 59 1003.3
20260507161601 59 300 2.0 5.0 0.00 0.88 0.17 61 1003.5
20260507160059 58 278 3.0 8.0 0.00 0.88 0.17 60 1003.5
20260507154550 58 277 2.0 5.0 0.00 0.88 0.17 63 1003.5
20260507153052 57 174 0.0 5.0 0.00 0.88 0.17 68 1003.8
20260507151544 56 220 4.0 8.0 0.00 0.88 0.17 65 1004.0
20260507150043 56 342 1.0 5.0 0.00 0.88 0.17 71 1004.3
20260507144541 56 286 3.0 7.0 0.00 0.88 0.17 72 1004.4
20260507143051 55 118 2.0 5.0 0.00 0.88 0.17 69 1004.5
20260507141548 54 220 1.0 3.0 0.00 0.88 0.17 71 1004.6
20260507140034 52 227 0.0 5.0 0.00 0.88 0.17 76 1004.7
20260507134534 52 311 2.0 5.0 0.00 0.88 0.17 79 1004.8
20260507133050 51 234 2.0 6.0 0.00 0.88 0.17 78 1005.0
20260507131529 51 280 0.0 4.0 0.00 0.88 0.17 83 1004.9
20260507130034 50 275 3.0 6.0 0.00 0.88 0.17 83 1004.9
20260507124529 51 296 3.0 6.0 0.00 0.88 0.17 84 1005.1
20260507123035 50 295 2.0 6.0 0.00 0.88 0.17 86 1005.3
20260507121526 49 308 4.0 7.0 0.00 0.88 0.17 86 1005.3
20260507120024 48 265 1.0 4.0 0.00 0.88 0.17 90 1005.2
20260507114524 47 210 2.0 5.0 0.00 0.88 0.17 90 1005.6
20260507113023 47 254 2.0 6.0 0.00 0.88 0.17 92 1005.2
20260507111520 46 303 4.0 8.0 0.00 0.88 0.17 91 1005.1
20260507110020 46 328 3.0 7.0 0.00 0.88 0.17 92 1005.3
20260507104517 45 275 4.0 8.0 0.00 0.88 0.17 95 1004.9
20260507103016 44 284 3.0 7.0 0.00 0.88 0.17 96 1004.8
20260507101515 44 294 2.0 5.0 0.00 0.88 0.17 96 1004.7
20260507100020 44 342 0.0 3.0 0.00 0.88 0.17 97 1004.7
20260507094512 45 269 1.0 3.0 0.00 0.88 0.17 97 1004.9
20260507093012 45 302 1.0 4.0 0.00 0.88 0.17 97 1005.1
20260507091511 45 287 0.0 2.0 0.00 0.88 0.17 96 1004.2
20260507090011 45 279 2.0 3.0 0.00 0.88 0.17 96 1004.6
20260507084506 46 284 2.0 5.0 0.00 0.88 0.17 96 1004.3
20260507083005 46 292 2.0 4.0 0.00 0.88 0.17 96 1004.3
20260507081503 46 298 2.0 4.0 0.00 0.88 0.17 97 1004.2